Flag for U.S.A. Weather past 2 weeks in Cambridge, Massachusetts, U.S.A.

Now
78 °F

Passing clouds.


Feels Like: 80 °F
Forecast: 61 / 87 °F
Wind: 7 mph from Southeast

Location: Logan International Airport

Current Time: Jul 22, 2014 at 12:00:21 PM

Latest Report: Jul 22, 2014 at 10:54 AM


Visibility: 10 mi

Pressure: 30.11 "Hg

Humidity: 66%

Dew point: 66 °F

Location of CambridgeLocation

Historic Weather in Cambridge — Graph

°F

Cambridge temperature yesterday

Maximum temperature yesterday: 72 °F (at 12:54 PM)
Minimum temperature yesterday: 61 °F (at 3:54 AM)
Average temperature yesterday: 66 °F

Past Weeks' High & Low Weather Summary

 TemperatureHumidityPressure
High91 °F (Jul 8, 3:54 PM)97% (Jul 14, 8:54 PM)30.27 "Hg (Jul 14, 8:54 PM)
Low61 °F (Jul 20, 3:54 AM)38% (Jul 10, 2:54 PM)29.66 "Hg (Jul 9, 1:54 AM)
Average73 °F71%30.01 "Hg
* Reported Jul 7 10:54 AM — Jul 22 10:54 AM, Cambridge, Weather by CustomWeather, © 2014

Note: Actual official high and low records may vary slightly from our data, if they occured in-between our weather recording intervals... More about our weather records

Advertising

Cambridge weather history for previous 24 hours

 ConditionsComfort  
Time TempWeatherWind HumidityBarometerVisibility
10:54 AM
Jul 22
78 °FPassing clouds.7 mph66%30.11 "Hg10 mi
9:54 AM79 °FPassing clouds.3 mph62%30.11 "Hg10 mi
8:54 AM75 °FPassing clouds.5 mph69%30.13 "Hg10 mi
7:54 AM71 °FSunny.7 mph76%30.14 "Hg10 mi
6:54 AM67 °FPassing clouds.3 mph87%30.14 "Hg10 mi
5:54 AM65 °FPassing clouds.7 mph91%30.14 "Hg10 mi
4:54 AM65 °FPassing clouds.6 mph91%30.13 "Hg10 mi
3:54 AM66 °FPassing clouds.7 mph87%30.13 "Hg10 mi
2:54 AM65 °FClear.8 mph91%30.13 "Hg10 mi
1:54 AM65 °FPassing clouds.6 mph87%30.14 "Hg10 mi
12:54 AM63 °FPassing clouds.No wind93%30.15 "Hg10 mi
10:54 PM
Jul 21
64 °FPassing clouds.3 mph90%30.17 "Hg10 mi
8:54 PM63 °FScattered clouds.3 mph93%30.16 "Hg10 mi
7:54 PM64 °FScattered clouds.6 mph90%30.16 "Hg10 mi
6:54 PM66 °FPassing clouds.5 mph84%30.16 "Hg10 mi
5:54 PM67 °FPassing clouds.7 mph85%30.16 "Hg10 mi
4:54 PM67 °FScattered clouds.8 mph85%30.16 "Hg10 mi
3:54 PM67 °FScattered clouds.10 mph81%30.17 "Hg1 mi
2:54 PM70 °FScattered clouds.12 mph73%30.18 "Hg10 mi
1:54 PM71 °FScattered clouds.13 mph71%30.18 "Hg10 mi
12:54 PM72 °FScattered clouds.9 mph66%30.18 "Hg10 mi
Weather by CustomWeather, © 2014

See weather overviewHow to use our weather pages